Portada
METAR-TAF:

METAR-TAF

Aeroports :

Oakey, Austràlia

latitud: 27-24-41S, longitud: 151-44-07E, altitud: 407 m

Observació

L'informe es va fer fa 34 minuts, a les 16:00 UTC
Vent 12 kt del Est
Temperatura 18°C
Humitat 94%
Pressió 1022 hPa
Visibilitat 10 km o més
Cel ennuvolat a una alçada de 1500 ft

METAR: YBOK 191600Z AUTO 10012KT 9999 // BKN015 18/17 Q1022

Hora: 02:34 (16:34 UTC)


TAF: manca

Observacions i pronòstics meteorològics de més de 4000 aeroports (METAR i TAF).

Les estacions disponibles són els punts grocs i vermells al mapa.

Posi el ratolí al punt desitjat per veure el nom de l'estació.

Feu clic per veure les observacions i els pronòstics meteorològics.

Per canviar el mapa: feu clic els botons verds amb una creu de color negre per apropar; al botó verd amb un guió per allunyar la imatge; o en les fletxes verdes per a mapes adjacents.


METAR-TAF: